GEFSNE_prec_meanprecacc_078.txt.gz
Total_Precipitation_Accumulation
0.63 0.77 0.83 0.78 0.78 0.83 0.89 0.93 0.98 0.94 0.93 0.90 0.80 0.74 0.72 0.70 0.63 0.54 0.41 0.38 0.37 0.34 0.33 0.32 0.32 0.36 0.38 0.41 0.44 0.49 0.54 0.60 0.68 0.80 0.97 1.15 1.28 1.43
0.80 0.89 0.93 0.95 0.94 0.87 0.91 0.96 0.98 1.04 1.00 0.85 0.78 0.79 0.71 0.55 0.52 0.47 0.40 0.42 0.39 0.35 0.33 0.30 0.29 0.32 0.34 0.34 0.30 0.31 0.33 0.35 0.38 0.42 0.51 0.64 0.77 0.95
0.93 1.03 1.07 1.12 1.12 1.01 0.96 0.94 0.94 1.02 0.97 0.83 0.77 0.79 0.68 0.52 0.46 0.43 0.41 0.40 0.36 0.37 0.33 0.29 0.28 0.27 0.31 0.31 0.29 0.27 0.26 0.26 0.27 0.29 0.33 0.37 0.41 0.48
0.96 1.12 1.20 1.17 1.08 1.02 1.02 0.98 0.96 1.04 0.99 0.91 0.88 0.83 0.75 0.65 0.56 0.50 0.43 0.39 0.37 0.39 0.35 0.30 0.28 0.26 0.25 0.25 0.25 0.23 0.23 0.23 0.23 0.23 0.25 0.27 0.28 0.29
0.97 1.02 1.05 1.12 1.10 1.02 0.97 0.94 0.93 1.04 1.03 0.94 1.01 1.00 0.89 0.78 0.64 0.54 0.46 0.44 0.39 0.37 0.37 0.34 0.32 0.27 0.25 0.23 0.23 0.22 0.20 0.19 0.20 0.21 0.22 0.24 0.25 0.24
0.84 0.89 0.92 0.96 1.02 1.07 1.01 0.96 0.98 1.00 1.01 1.00 1.05 1.18 1.08 0.92 0.74 0.61 0.52 0.48 0.44 0.34 0.35 0.38 0.36 0.31 0.27 0.24 0.22 0.20 0.20 0.18 0.18 0.19 0.17 0.18 0.24 0.28
0.56 0.58 0.69 0.85 0.95 1.01 0.96 0.94 0.98 0.99 0.98 1.03 1.07 1.21 1.23 1.06 0.83 0.63 0.55 0.53 0.51 0.45 0.38 0.32 0.30 0.26 0.24 0.25 0.24 0.21 0.17 0.17 0.17 0.16 0.15 0.17 0.21 0.31
0.38 0.37 0.38 0.51 0.69 0.81 0.84 0.84 0.89 0.94 0.98 1.00 1.07 1.16 1.22 1.11 0.93 0.79 0.65 0.54 0.52 0.52 0.51 0.47 0.36 0.31 0.25 0.21 0.22 0.23 0.21 0.17 0.15 0.14 0.14 0.15 0.17 0.26
0.33 0.33 0.26 0.25 0.39 0.54 0.65 0.70 0.72 0.72 0.80 0.95 1.06 1.08 1.18 1.21 1.12 0.93 0.81 0.69 0.56 0.54 0.56 0.59 0.52 0.41 0.31 0.28 0.30 0.25 0.24 0.23 0.20 0.19 0.16 0.14 0.13 0.16
0.32 0.32 0.31 0.31 0.34 0.40 0.51 0.60 0.64 0.62 0.60 0.68 0.85 1.04 1.19 1.33 1.28 1.18 1.08 0.95 0.79 0.69 0.64 0.63 0.60 0.51 0.42 0.34 0.34 0.29 0.26 0.24 0.23 0.26 0.33 0.34 0.23 0.19
0.32 0.33 0.34 0.32 0.30 0.26 0.35 0.42 0.48 0.57 0.57 0.59 0.71 0.93 1.12 1.26 1.40 1.33 1.20 1.01 0.84 0.73 0.64 0.56 0.55 0.56 0.52 0.42 0.35 0.34 0.29 0.27 0.25 0.27 0.39 0.62 0.68 0.51
0.44 0.44 0.35 0.29 0.23 0.18 0.26 0.35 0.39 0.42 0.51 0.56 0.63 0.76 0.93 1.05 1.18 1.18 1.03 0.93 0.79 0.68 0.57 0.48 0.45 0.48 0.54 0.50 0.41 0.34 0.30 0.30 0.30 0.33 0.47 0.79 0.91 0.78
0.49 0.48 0.45 0.30 0.21 0.17 0.19 0.29 0.32 0.39 0.48 0.54 0.64 0.78 0.94 1.07 1.06 1.05 0.99 0.83 0.73 0.58 0.45 0.45 0.43 0.39 0.37 0.40 0.39 0.38 0.33 0.28 0.26 0.29 0.39 0.65 0.89 0.86
0.63 0.59 0.55 0.39 0.26 0.22 0.19 0.20 0.22 0.27 0.43 0.50 0.56 0.68 0.82 0.96 1.05 1.07 1.04 0.90 0.74 0.65 0.56 0.50 0.44 0.40 0.32 0.29 0.32 0.35 0.38 0.36 0.31 0.27 0.27 0.42 0.58 0.83
0.72 0.72 0.60 0.47 0.37 0.29 0.27 0.25 0.23 0.24 0.37 0.46 0.47 0.52 0.60 0.74 1.02 1.22 1.30 1.19 0.96 0.75 0.68 0.58 0.48 0.43 0.40 0.31 0.28 0.28 0.33 0.38 0.36 0.33 0.32 0.31 0.41 0.58
0.71 0.75 0.65 0.60 0.52 0.44 0.40 0.36 0.31 0.29 0.33 0.42 0.47 0.54 0.65 0.78 0.96 1.15 1.31 1.30 1.13 0.85 0.69 0.62 0.53 0.46 0.44 0.39 0.31 0.27 0.24 0.28 0.33 0.33 0.35 0.38 0.45 0.52
0.83 0.95 0.90 0.82 0.76 0.68 0.61 0.56 0.51 0.45 0.40 0.44 0.57 0.63 0.72 0.76 0.85 0.98 1.15 1.22 1.08 0.82 0.65 0.61 0.60 0.54 0.50 0.46 0.38 0.30 0.25 0.22 0.24 0.27 0.29 0.34 0.42 0.45
0.85 1.02 0.98 0.90 0.87 0.84 0.80 0.74 0.68 0.61 0.55 0.53 0.58 0.66 0.70 0.74 0.80 0.89 0.98 1.05 1.01 0.86 0.69 0.56 0.54 0.53 0.50 0.50 0.43 0.32 0.25 0.23 0.22 0.25 0.26 0.26 0.30 0.34
0.73 0.90 0.89 0.87 0.87 0.91 0.88 0.79 0.71 0.70 0.71 0.68 0.64 0.67 0.72 0.74 0.76 0.84 0.87 0.94 0.98 0.95 0.82 0.64 0.52 0.45 0.40 0.36 0.33 0.30 0.25 0.21 0.23 0.25 0.26 0.24 0.23 0.23
0.66 0.78 0.81 0.82 0.84 0.88 0.85 0.83 0.80 0.81 0.81 0.76 0.71 0.71 0.75 0.75 0.73 0.75 0.80 0.80 0.86 0.92 0.91 0.73 0.53 0.41 0.33 0.27 0.24 0.24 0.23 0.22 0.21 0.23 0.25 0.25 0.26 0.27
0.71 0.75 0.78 0.77 0.78 0.84 0.85 0.85 0.84 0.85 0.83 0.81 0.79 0.76 0.77 0.79 0.73 0.70 0.75 0.81 0.80 0.81 0.79 0.69 0.55 0.55 0.49 0.41 0.34 0.30 0.26 0.24 0.26 0.24 0.25 0.26 0.25 0.26
0.73 0.70 0.74 0.77 0.78 0.80 0.82 0.82 0.84 0.87 0.84 0.80 0.82 0.81 0.79 0.78 0.73 0.71 0.71 0.74 0.70 0.68 0.71 0.75 0.77 0.72 0.60 0.46 0.36 0.33 0.32 0.28 0.28 0.34 0.30 0.25 0.19 0.17
0.70 0.68 0.68 0.68 0.69 0.72 0.74 0.75 0.80 0.82 0.79 0.76 0.78 0.81 0.79 0.77 0.73 0.72 0.70 0.70 0.72 0.75 0.81 0.88 0.91 0.79 0.64 0.52 0.41 0.37 0.38 0.34 0.26 0.25 0.25 0.24 0.21 0.16

GEFSNE_prec_meanprecacc_084.txt.gz
Total_Precipitation_Accumulation
0.63 0.77 0.83 0.78 0.78 0.83 0.89 0.93 0.98 0.94 0.93 0.90 0.80 0.74 0.72 0.70 0.63 0.54 0.41 0.38 0.37 0.35 0.34 0.33 0.35 0.40 0.44 0.48 0.53 0.59 0.63 0.68 0.78 0.90 1.08 1.26 1.40 1.55
0.80 0.89 0.93 0.95 0.94 0.87 0.91 0.96 0.98 1.04 1.00 0.85 0.78 0.79 0.71 0.55 0.52 0.47 0.40 0.42 0.39 0.36 0.33 0.30 0.30 0.34 0.37 0.38 0.35 0.37 0.41 0.43 0.45 0.50 0.59 0.71 0.85 1.03
0.93 1.03 1.07 1.12 1.12 1.01 0.96 0.94 0.94 1.02 0.97 0.83 0.77 0.79 0.68 0.52 0.46 0.43 0.41 0.40 0.36 0.37 0.33 0.29 0.28 0.29 0.32 0.33 0.32 0.31 0.32 0.33 0.34 0.37 0.40 0.45 0.47 0.54
0.96 1.12 1.20 1.17 1.08 1.02 1.02 0.98 0.96 1.04 0.99 0.91 0.88 0.83 0.75 0.65 0.56 0.50 0.43 0.39 0.37 0.39 0.35 0.30 0.28 0.27 0.27 0.26 0.27 0.26 0.27 0.28 0.29 0.30 0.31 0.34 0.34 0.34
0.97 1.02 1.05 1.12 1.10 1.02 0.97 0.94 0.93 1.04 1.03 0.94 1.01 1.00 0.89 0.78 0.64 0.54 0.46 0.44 0.39 0.37 0.38 0.35 0.32 0.27 0.25 0.25 0.25 0.24 0.24 0.23 0.24 0.26 0.28 0.31 0.31 0.29
0.84 0.89 0.92 0.96 1.02 1.07 1.01 0.96 0.98 1.00 1.01 1.00 1.05 1.18 1.08 0.92 0.74 0.61 0.52 0.48 0.44 0.34 0.35 0.38 0.37 0.32 0.28 0.25 0.24 0.23 0.25 0.23 0.22 0.23 0.23 0.24 0.29 0.34
0.56 0.58 0.69 0.85 0.95 1.01 0.96 0.94 0.98 0.99 0.98 1.03 1.07 1.21 1.23 1.06 0.83 0.63 0.55 0.53 0.51 0.45 0.38 0.32 0.30 0.27 0.25 0.26 0.26 0.24 0.22 0.22 0.21 0.20 0.20 0.23 0.27 0.36
0.38 0.37 0.38 0.51 0.69 0.81 0.84 0.84 0.89 0.94 0.98 1.00 1.07 1.16 1.22 1.11 0.93 0.79 0.65 0.54 0.52 0.52 0.51 0.47 0.36 0.31 0.25 0.22 0.23 0.25 0.25 0.22 0.21 0.19 0.19 0.19 0.22 0.32
0.33 0.33 0.26 0.25 0.39 0.54 0.65 0.70 0.72 0.72 0.80 0.95 1.06 1.08 1.18 1.21 1.12 0.93 0.81 0.69 0.56 0.54 0.56 0.59 0.52 0.41 0.31 0.28 0.32 0.27 0.26 0.26 0.26 0.25 0.22 0.17 0.17 0.20
0.32 0.32 0.31 0.31 0.34 0.40 0.51 0.60 0.64 0.62 0.60 0.68 0.85 1.04 1.19 1.33 1.28 1.18 1.08 0.95 0.79 0.69 0.64 0.63 0.60 0.52 0.43 0.35 0.35 0.31 0.28 0.27 0.26 0.32 0.40 0.40 0.27 0.22
0.32 0.33 0.34 0.32 0.30 0.26 0.35 0.42 0.48 0.57 0.57 0.59 0.71 0.93 1.12 1.26 1.40 1.33 1.20 1.01 0.84 0.73 0.64 0.56 0.55 0.56 0.52 0.43 0.37 0.36 0.31 0.29 0.28 0.30 0.44 0.68 0.75 0.56
0.44 0.44 0.35 0.29 0.23 0.18 0.26 0.35 0.39 0.42 0.51 0.56 0.63 0.76 0.93 1.05 1.18 1.18 1.03 0.94 0.79 0.68 0.57 0.48 0.45 0.48 0.54 0.50 0.41 0.35 0.32 0.32 0.33 0.37 0.52 0.83 0.98 0.85
0.49 0.48 0.45 0.30 0.21 0.17 0.19 0.29 0.32 0.39 0.48 0.54 0.64 0.78 0.94 1.07 1.06 1.05 0.99 0.84 0.74 0.58 0.45 0.45 0.44 0.39 0.37 0.40 0.40 0.38 0.34 0.30 0.29 0.33 0.45 0.70 0.95 0.92
0.63 0.59 0.55 0.39 0.26 0.23 0.20 0.20 0.22 0.27 0.43 0.50 0.56 0.68 0.82 0.96 1.05 1.07 1.05 0.91 0.74 0.65 0.56 0.50 0.44 0.40 0.32 0.29 0.32 0.36 0.39 0.38 0.34 0.31 0.32 0.49 0.65 0.90
0.72 0.72 0.60 0.47 0.37 0.30 0.27 0.25 0.23 0.25 0.37 0.47 0.47 0.52 0.60 0.74 1.02 1.22 1.30 1.19 0.96 0.75 0.68 0.59 0.48 0.44 0.40 0.32 0.28 0.29 0.34 0.39 0.38 0.38 0.36 0.38 0.48 0.66
0.72 0.75 0.66 0.60 0.53 0.44 0.40 0.36 0.31 0.29 0.33 0.42 0.47 0.54 0.65 0.78 0.96 1.15 1.31 1.31 1.13 0.85 0.70 0.62 0.53 0.47 0.44 0.40 0.32 0.27 0.25 0.30 0.35 0.37 0.40 0.44 0.52 0.60
0.84 0.95 0.90 0.83 0.76 0.68 0.61 0.56 0.51 0.45 0.40 0.44 0.57 0.63 0.72 0.76 0.85 0.98 1.15 1.23 1.09 0.83 0.66 0.62 0.60 0.55 0.50 0.47 0.39 0.31 0.26 0.23 0.26 0.31 0.35 0.41 0.49 0.52
0.85 1.02 0.99 0.91 0.87 0.85 0.80 0.74 0.68 0.61 0.55 0.53 0.58 0.66 0.70 0.74 0.80 0.90 0.98 1.06 1.02 0.87 0.70 0.57 0.55 0.54 0.51 0.51 0.43 0.32 0.25 0.24 0.25 0.28 0.30 0.32 0.37 0.42
0.74 0.90 0.90 0.88 0.88 0.91 0.88 0.79 0.71 0.71 0.72 0.68 0.64 0.68 0.72 0.74 0.77 0.84 0.88 0.94 0.98 0.96 0.83 0.66 0.53 0.46 0.41 0.37 0.34 0.31 0.26 0.22 0.25 0.28 0.30 0.28 0.28 0.30
0.67 0.79 0.83 0.83 0.85 0.89 0.86 0.84 0.80 0.81 0.82 0.76 0.72 0.71 0.75 0.75 0.73 0.75 0.80 0.81 0.87 0.92 0.92 0.75 0.55 0.42 0.34 0.28 0.26 0.24 0.24 0.24 0.24 0.26 0.29 0.30 0.32 0.35
0.72 0.76 0.79 0.79 0.80 0.85 0.86 0.86 0.85 0.86 0.84 0.82 0.79 0.77 0.78 0.80 0.73 0.70 0.76 0.82 0.80 0.82 0.80 0.70 0.57 0.57 0.52 0.44 0.36 0.31 0.26 0.26 0.29 0.28 0.30 0.32 0.33 0.35
0.75 0.72 0.77 0.78 0.80 0.81 0.83 0.84 0.86 0.88 0.85 0.81 0.82 0.82 0.79 0.79 0.74 0.72 0.71 0.75 0.72 0.69 0.72 0.77 0.80 0.75 0.65 0.51 0.39 0.35 0.33 0.29 0.31 0.38 0.36 0.33 0.27 0.25
0.73 0.71 0.71 0.70 0.71 0.74 0.76 0.76 0.82 0.83 0.80 0.77 0.78 0.81 0.80 0.78 0.74 0.73 0.72 0.71 0.74 0.76 0.82 0.89 0.94 0.84 0.69 0.57 0.45 0.40 0.40 0.36 0.29 0.29 0.29 0.31 0.29 0.25

GEFSNE_prec_meanprecacc_090.txt.gz
Total_Precipitation_Accumulation
0.64 0.77 0.83 0.78 0.78 0.83 0.89 0.94 0.98 0.94 0.93 0.90 0.80 0.74 0.72 0.70 0.63 0.54 0.42 0.38 0.37 0.35 0.34 0.34 0.36 0.41 0.46 0.50 0.56 0.64 0.71 0.76 0.86 1.00 1.21 1.43 1.56 1.70
0.80 0.89 0.93 0.96 0.94 0.87 0.91 0.96 0.98 1.04 1.00 0.85 0.78 0.79 0.71 0.55 0.52 0.47 0.40 0.42 0.39 0.36 0.33 0.31 0.30 0.35 0.39 0.40 0.37 0.40 0.45 0.49 0.52 0.57 0.66 0.79 0.95 1.13
0.93 1.03 1.08 1.13 1.12 1.01 0.96 0.94 0.94 1.03 0.97 0.83 0.77 0.79 0.68 0.52 0.46 0.43 0.41 0.40 0.36 0.37 0.33 0.29 0.28 0.29 0.32 0.35 0.34 0.33 0.34 0.35 0.39 0.42 0.45 0.50 0.53 0.60
0.96 1.12 1.20 1.18 1.09 1.03 1.02 0.98 0.97 1.05 0.99 0.91 0.89 0.83 0.75 0.65 0.56 0.50 0.43 0.39 0.37 0.39 0.35 0.30 0.28 0.27 0.27 0.27 0.27 0.27 0.28 0.29 0.31 0.32 0.35 0.37 0.38 0.38
0.97 1.02 1.05 1.13 1.11 1.03 0.97 0.94 0.94 1.04 1.03 0.95 1.01 1.00 0.90 0.78 0.65 0.54 0.47 0.44 0.39 0.37 0.38 0.35 0.32 0.27 0.25 0.25 0.25 0.25 0.24 0.23 0.25 0.27 0.29 0.33 0.34 0.33
0.84 0.89 0.92 0.96 1.02 1.08 1.02 0.97 0.98 1.00 1.01 1.00 1.05 1.18 1.08 0.92 0.74 0.61 0.52 0.48 0.44 0.34 0.35 0.38 0.37 0.32 0.28 0.25 0.24 0.23 0.25 0.23 0.22 0.24 0.23 0.25 0.31 0.36
0.56 0.58 0.69 0.85 0.95 1.01 0.96 0.94 0.99 0.99 0.99 1.04 1.07 1.21 1.24 1.06 0.83 0.64 0.55 0.54 0.51 0.45 0.38 0.32 0.30 0.27 0.25 0.26 0.26 0.24 0.22 0.22 0.22 0.20 0.21 0.24 0.28 0.38
0.38 0.37 0.38 0.51 0.69 0.81 0.84 0.84 0.89 0.95 0.99 1.01 1.08 1.16 1.22 1.12 0.94 0.80 0.65 0.55 0.53 0.52 0.52 0.47 0.37 0.31 0.26 0.22 0.24 0.25 0.25 0.23 0.21 0.20 0.19 0.19 0.23 0.33
0.33 0.33 0.26 0.25 0.39 0.54 0.65 0.70 0.72 0.72 0.80 0.95 1.07 1.09 1.19 1.23 1.13 0.95 0.83 0.71 0.57 0.55 0.58 0.59 0.52 0.41 0.32 0.28 0.32 0.27 0.26 0.26 0.26 0.26 0.22 0.18 0.17 0.21
0.32 0.32 0.31 0.31 0.34 0.40 0.52 0.60 0.65 0.62 0.60 0.69 0.86 1.05 1.20 1.34 1.31 1.20 1.10 0.97 0.80 0.70 0.65 0.64 0.60 0.52 0.43 0.35 0.35 0.31 0.28 0.27 0.27 0.32 0.41 0.41 0.29 0.24
0.32 0.33 0.34 0.32 0.30 0.27 0.35 0.42 0.48 0.58 0.57 0.59 0.71 0.93 1.12 1.26 1.41 1.34 1.21 1.02 0.85 0.73 0.65 0.57 0.55 0.56 0.52 0.43 0.37 0.36 0.31 0.29 0.28 0.31 0.45 0.69 0.77 0.59
0.44 0.44 0.35 0.29 0.23 0.19 0.27 0.36 0.39 0.42 0.51 0.57 0.63 0.76 0.93 1.05 1.18 1.18 1.04 0.95 0.80 0.69 0.58 0.50 0.46 0.49 0.55 0.50 0.42 0.36 0.32 0.33 0.34 0.37 0.52 0.84 0.99 0.87
0.49 0.48 0.45 0.30 0.21 0.18 0.19 0.29 0.32 0.39 0.49 0.55 0.65 0.79 0.95 1.07 1.07 1.05 1.00 0.85 0.75 0.59 0.47 0.48 0.46 0.41 0.39 0.41 0.40 0.39 0.35 0.31 0.30 0.34 0.45 0.71 0.96 0.94
0.63 0.60 0.56 0.39 0.26 0.23 0.20 0.20 0.22 0.27 0.43 0.50 0.57 0.69 0.82 0.97 1.06 1.09 1.06 0.92 0.75 0.66 0.57 0.53 0.47 0.43 0.35 0.31 0.34 0.37 0.40 0.39 0.35 0.32 0.33 0.50 0.66 0.91
0.72 0.72 0.61 0.47 0.37 0.30 0.27 0.26 0.24 0.25 0.37 0.47 0.48 0.53 0.60 0.75 1.03 1.23 1.31 1.21 0.97 0.76 0.68 0.59 0.49 0.45 0.42 0.34 0.29 0.30 0.35 0.41 0.40 0.39 0.38 0.40 0.50 0.68
0.72 0.76 0.66 0.61 0.53 0.44 0.40 0.37 0.32 0.30 0.34 0.43 0.48 0.55 0.66 0.79 0.97 1.17 1.33 1.33 1.15 0.86 0.71 0.63 0.54 0.49 0.47 0.42 0.34 0.29 0.26 0.31 0.37 0.39 0.44 0.47 0.56 0.63
0.85 0.96 0.91 0.83 0.77 0.69 0.62 0.57 0.53 0.46 0.41 0.45 0.58 0.65 0.73 0.78 0.87 1.00 1.18 1.25 1.11 0.85 0.68 0.65 0.64 0.59 0.54 0.51 0.43 0.33 0.28 0.25 0.28 0.34 0.39 0.45 0.53 0.57
0.86 1.03 0.99 0.92 0.89 0.87 0.83 0.77 0.71 0.64 0.58 0.57 0.61 0.69 0.73 0.76 0.83 0.92 1.01 1.08 1.04 0.89 0.72 0.60 0.60 0.60 0.56 0.53 0.45 0.34 0.28 0.26 0.26 0.32 0.34 0.35 0.40 0.46
0.74 0.91 0.91 0.90 0.90 0.94 0.92 0.83 0.75 0.74 0.76 0.73 0.69 0.72 0.76 0.77 0.80 0.87 0.91 0.97 1.01 0.98 0.85 0.69 0.58 0.52 0.47 0.41 0.37 0.33 0.28 0.25 0.29 0.32 0.33 0.31 0.31 0.33
0.68 0.79 0.84 0.86 0.89 0.93 0.90 0.88 0.84 0.87 0.88 0.82 0.78 0.76 0.80 0.80 0.77 0.78 0.83 0.85 0.91 0.96 0.95 0.78 0.59 0.47 0.39 0.33 0.31 0.29 0.27 0.27 0.29 0.31 0.33 0.34 0.35 0.38
0.74 0.78 0.82 0.82 0.83 0.89 0.90 0.90 0.90 0.92 0.91 0.89 0.86 0.83 0.84 0.85 0.78 0.74 0.81 0.87 0.85 0.87 0.84 0.74 0.63 0.62 0.58 0.51 0.41 0.35 0.32 0.30 0.32 0.34 0.37 0.40 0.40 0.41
0.79 0.77 0.81 0.82 0.83 0.85 0.88 0.88 0.90 0.94 0.93 0.90 0.91 0.91 0.88 0.86 0.80 0.78 0.78 0.82 0.77 0.73 0.76 0.82 0.89 0.84 0.71 0.56 0.43 0.39 0.39 0.36 0.35 0.40 0.40 0.38 0.35 0.33
0.79 0.78 0.78 0.77 0.77 0.80 0.83 0.83 0.89 0.92 0.89 0.86 0.88 0.91 0.89 0.86 0.81 0.80 0.78 0.78 0.81 0.83 0.88 0.96 1.02 0.93 0.75 0.63 0.50 0.45 0.47 0.45 0.38 0.35 0.33 0.32 0.30 0.27

GEFSNE_prec_meanprecacc_096.txt.gz
Total_Precipitation_Accumulation
0.64 0.78 0.83 0.79 0.78 0.84 0.89 0.94 0.98 0.95 0.93 0.90 0.80 0.74 0.72 0.70 0.63 0.54 0.42 0.38 0.37 0.35 0.34 0.34 0.36 0.42 0.46 0.51 0.57 0.66 0.73 0.80 0.91 1.06 1.29 1.52 1.66 1.81
0.80 0.89 0.94 0.96 0.95 0.87 0.91 0.96 0.98 1.04 1.01 0.85 0.78 0.79 0.71 0.55 0.52 0.47 0.40 0.42 0.39 0.36 0.33 0.31 0.30 0.35 0.39 0.40 0.38 0.41 0.46 0.50 0.54 0.60 0.69 0.84 1.00 1.18
0.93 1.03 1.08 1.13 1.13 1.02 0.97 0.94 0.94 1.03 0.98 0.83 0.77 0.79 0.68 0.52 0.46 0.43 0.41 0.40 0.36 0.37 0.33 0.29 0.28 0.29 0.32 0.35 0.34 0.33 0.34 0.36 0.39 0.43 0.48 0.53 0.57 0.64
0.96 1.12 1.21 1.18 1.10 1.03 1.03 0.98 0.97 1.06 1.00 0.91 0.89 0.83 0.75 0.66 0.56 0.50 0.43 0.39 0.38 0.39 0.35 0.30 0.28 0.27 0.27 0.27 0.27 0.27 0.28 0.30 0.31 0.33 0.35 0.38 0.40 0.41
0.98 1.03 1.06 1.13 1.11 1.04 0.98 0.95 0.94 1.04 1.04 0.95 1.02 1.00 0.90 0.78 0.65 0.54 0.47 0.44 0.39 0.37 0.38 0.35 0.32 0.27 0.25 0.25 0.25 0.25 0.24 0.23 0.25 0.27 0.30 0.33 0.34 0.34
0.85 0.90 0.93 0.96 1.03 1.08 1.02 0.97 0.99 1.01 1.02 1.01 1.05 1.18 1.09 0.92 0.74 0.61 0.52 0.48 0.44 0.34 0.35 0.38 0.37 0.32 0.28 0.25 0.24 0.23 0.25 0.23 0.22 0.24 0.24 0.25 0.31 0.36
0.58 0.60 0.71 0.86 0.96 1.02 0.97 0.94 1.00 1.00 1.00 1.05 1.08 1.21 1.24 1.07 0.83 0.64 0.56 0.54 0.51 0.45 0.38 0.32 0.30 0.27 0.25 0.26 0.26 0.24 0.22 0.22 0.22 0.20 0.21 0.24 0.28 0.38
0.40 0.39 0.39 0.51 0.69 0.82 0.84 0.84 0.90 0.95 0.99 1.01 1.08 1.17 1.23 1.13 0.95 0.80 0.65 0.55 0.53 0.52 0.52 0.47 0.37 0.31 0.26 0.22 0.24 0.25 0.25 0.23 0.21 0.20 0.19 0.19 0.23 0.33
0.34 0.35 0.27 0.26 0.40 0.56 0.66 0.70 0.72 0.72 0.80 0.96 1.07 1.09 1.19 1.23 1.15 0.96 0.84 0.72 0.58 0.55 0.59 0.60 0.52 0.41 0.32 0.28 0.32 0.27 0.26 0.26 0.26 0.26 0.22 0.18 0.17 0.21
0.32 0.33 0.32 0.33 0.36 0.42 0.53 0.62 0.66 0.64 0.61 0.69 0.86 1.05 1.20 1.35 1.32 1.21 1.11 0.98 0.80 0.70 0.66 0.64 0.60 0.52 0.43 0.35 0.35 0.31 0.28 0.27 0.27 0.32 0.41 0.41 0.29 0.24
0.33 0.34 0.35 0.33 0.31 0.28 0.37 0.43 0.50 0.59 0.58 0.60 0.71 0.94 1.12 1.27 1.41 1.35 1.22 1.03 0.85 0.73 0.65 0.57 0.56 0.57 0.53 0.43 0.37 0.36 0.31 0.29 0.28 0.31 0.45 0.69 0.77 0.60
0.45 0.45 0.36 0.30 0.24 0.20 0.28 0.38 0.41 0.43 0.53 0.58 0.65 0.77 0.93 1.05 1.18 1.18 1.04 0.96 0.80 0.69 0.58 0.51 0.47 0.51 0.56 0.50 0.42 0.36 0.33 0.33 0.34 0.37 0.52 0.84 0.99 0.87
0.49 0.49 0.45 0.31 0.22 0.18 0.20 0.30 0.33 0.40 0.50 0.57 0.67 0.81 0.97 1.09 1.08 1.06 1.01 0.85 0.76 0.59 0.47 0.49 0.47 0.43 0.41 0.42 0.41 0.40 0.35 0.31 0.31 0.35 0.45 0.71 0.96 0.94
0.63 0.60 0.56 0.40 0.26 0.23 0.20 0.20 0.22 0.28 0.44 0.51 0.58 0.69 0.83 0.99 1.07 1.11 1.09 0.94 0.77 0.66 0.58 0.55 0.49 0.45 0.37 0.33 0.34 0.37 0.41 0.39 0.36 0.34 0.35 0.52 0.66 0.91
0.72 0.72 0.61 0.47 0.37 0.30 0.27 0.26 0.24 0.25 0.37 0.47 0.48 0.53 0.61 0.76 1.04 1.26 1.36 1.27 1.02 0.78 0.70 0.62 0.52 0.48 0.45 0.35 0.30 0.31 0.36 0.42 0.41 0.40 0.40 0.43 0.53 0.70
0.73 0.76 0.66 0.61 0.53 0.44 0.41 0.37 0.32 0.30 0.34 0.44 0.49 0.56 0.67 0.81 1.00 1.19 1.38 1.40 1.24 0.91 0.74 0.68 0.58 0.54 0.51 0.44 0.36 0.30 0.28 0.33 0.38 0.41 0.46 0.50 0.60 0.68
0.86 0.97 0.92 0.84 0.78 0.70 0.64 0.60 0.56 0.50 0.44 0.49 0.61 0.68 0.77 0.81 0.90 1.05 1.25 1.34 1.20 0.91 0.73 0.71 0.72 0.67 0.61 0.58 0.48 0.36 0.31 0.27 0.29 0.36 0.43 0.47 0.55 0.59
0.86 1.03 1.00 0.93 0.90 0.89 0.86 0.81 0.76 0.70 0.65 0.65 0.70 0.77 0.81 0.84 0.91 1.01 1.11 1.19 1.14 0.96 0.79 0.67 0.71 0.74 0.68 0.61 0.49 0.37 0.30 0.28 0.28 0.36 0.39 0.39 0.41 0.47
0.74 0.91 0.92 0.90 0.92 0.96 0.95 0.87 0.79 0.80 0.83 0.81 0.77 0.81 0.87 0.89 0.93 1.00 1.04 1.10 1.12 1.07 0.94 0.78 0.70 0.65 0.57 0.46 0.40 0.36 0.32 0.30 0.33 0.37 0.38 0.36 0.33 0.34
0.69 0.81 0.86 0.89 0.93 0.98 0.96 0.94 0.90 0.93 0.97 0.92 0.89 0.89 0.95 0.96 0.93 0.94 0.99 0.99 1.05 1.10 1.08 0.90 0.70 0.59 0.50 0.42 0.38 0.34 0.30 0.30 0.34 0.35 0.37 0.40 0.38 0.40
0.77 0.82 0.86 0.87 0.89 0.96 0.97 0.98 0.99 1.02 1.02 1.02 1.01 1.00 1.03 1.05 0.95 0.90 0.96 1.02 0.99 1.01 0.96 0.84 0.71 0.72 0.71 0.64 0.49 0.37 0.35 0.32 0.35 0.38 0.43 0.46 0.45 0.46
0.83 0.82 0.86 0.88 0.89 0.92 0.96 0.97 0.99 1.04 1.03 1.03 1.06 1.07 1.05 1.04 0.97 0.94 0.93 0.97 0.92 0.86 0.87 0.93 1.03 1.01 0.86 0.69 0.51 0.44 0.44 0.41 0.40 0.42 0.42 0.41 0.39 0.37
0.84 0.83 0.85 0.83 0.84 0.88 0.91 0.92 0.99 1.02 1.01 1.00 1.04 1.08 1.07 1.04 0.98 0.96 0.93 0.94 0.97 0.97 1.02 1.09 1.16 1.09 0.89 0.74 0.59 0.52 0.52 0.51 0.46 0.41 0.36 0.34 0.31 0.28

GEFSNE_prec_meanprecacc_102.txt.gz
Total_Precipitation_Accumulation
0.64 0.78 0.84 0.79 0.78 0.84 0.89 0.94 0.98 0.95 0.94 0.90 0.80 0.74 0.72 0.70 0.63 0.54 0.42 0.38 0.37 0.35 0.34 0.34 0.36 0.42 0.46 0.51 0.57 0.67 0.74 0.81 0.92 1.08 1.31 1.55 1.71 1.89
0.81 0.90 0.94 0.96 0.95 0.88 0.91 0.96 0.98 1.04 1.01 0.85 0.78 0.79 0.71 0.55 0.52 0.47 0.40 0.42 0.39 0.36 0.33 0.31 0.30 0.35 0.39 0.40 0.38 0.41 0.46 0.50 0.55 0.60 0.70 0.84 1.01 1.21
0.95 1.05 1.10 1.15 1.14 1.02 0.97 0.94 0.95 1.03 0.98 0.83 0.77 0.79 0.68 0.52 0.46 0.43 0.41 0.40 0.36 0.37 0.33 0.29 0.28 0.29 0.32 0.35 0.34 0.33 0.34 0.36 0.40 0.44 0.48 0.54 0.58 0.66
1.00 1.18 1.27 1.23 1.12 1.04 1.03 0.98 0.97 1.06 1.00 0.91 0.89 0.83 0.75 0.66 0.56 0.50 0.43 0.39 0.38 0.39 0.35 0.30 0.28 0.27 0.27 0.27 0.27 0.27 0.28 0.30 0.31 0.33 0.35 0.39 0.40 0.41
1.01 1.06 1.09 1.15 1.12 1.04 0.98 0.95 0.94 1.04 1.04 0.95 1.02 1.00 0.90 0.78 0.65 0.54 0.47 0.44 0.39 0.37 0.38 0.35 0.32 0.27 0.25 0.25 0.25 0.25 0.24 0.23 0.25 0.27 0.30 0.34 0.34 0.34
0.87 0.91 0.93 0.97 1.03 1.09 1.03 0.97 0.99 1.01 1.02 1.01 1.05 1.18 1.09 0.92 0.74 0.61 0.52 0.48 0.44 0.34 0.35 0.38 0.37 0.32 0.28 0.25 0.24 0.23 0.25 0.23 0.22 0.24 0.24 0.26 0.31 0.36
0.60 0.61 0.72 0.87 0.96 1.02 0.97 0.95 1.00 1.00 1.00 1.05 1.08 1.21 1.24 1.07 0.83 0.64 0.56 0.54 0.52 0.46 0.39 0.32 0.30 0.27 0.25 0.26 0.26 0.24 0.22 0.22 0.22 0.20 0.21 0.24 0.28 0.39
0.42 0.41 0.42 0.53 0.70 0.83 0.85 0.85 0.91 0.96 1.00 1.02 1.09 1.17 1.23 1.13 0.95 0.81 0.67 0.56 0.53 0.52 0.53 0.47 0.37 0.31 0.26 0.22 0.24 0.25 0.25 0.23 0.21 0.20 0.19 0.19 0.23 0.33
0.36 0.36 0.29 0.28 0.42 0.57 0.68 0.72 0.73 0.73 0.82 0.97 1.08 1.09 1.20 1.24 1.16 0.97 0.85 0.73 0.59 0.56 0.60 0.60 0.52 0.41 0.32 0.28 0.32 0.27 0.26 0.26 0.26 0.26 0.22 0.18 0.17 0.21
0.33 0.33 0.33 0.33 0.36 0.43 0.54 0.63 0.67 0.64 0.62 0.71 0.87 1.06 1.21 1.36 1.33 1.22 1.11 0.98 0.81 0.71 0.66 0.65 0.60 0.52 0.43 0.35 0.36 0.31 0.28 0.27 0.27 0.32 0.41 0.41 0.29 0.24
0.35 0.36 0.36 0.34 0.32 0.29 0.37 0.44 0.50 0.59 0.59 0.61 0.72 0.94 1.13 1.27 1.42 1.36 1.23 1.03 0.86 0.74 0.65 0.58 0.56 0.57 0.53 0.43 0.37 0.36 0.31 0.29 0.28 0.31 0.45 0.69 0.77 0.60
0.49 0.48 0.38 0.31 0.26 0.21 0.29 0.38 0.41 0.44 0.54 0.59 0.65 0.77 0.93 1.05 1.19 1.19 1.05 0.97 0.81 0.69 0.59 0.52 0.47 0.51 0.56 0.50 0.42 0.36 0.33 0.33 0.34 0.37 0.52 0.84 0.99 0.87
0.54 0.52 0.49 0.34 0.24 0.19 0.21 0.31 0.34 0.41 0.51 0.57 0.68 0.81 0.97 1.09 1.08 1.06 1.01 0.86 0.76 0.60 0.47 0.50 0.47 0.43 0.41 0.42 0.41 0.40 0.35 0.31 0.31 0.35 0.45 0.71 0.96 0.94
0.70 0.65 0.60 0.42 0.28 0.24 0.21 0.21 0.23 0.28 0.45 0.52 0.58 0.70 0.84 0.99 1.08 1.11 1.10 0.96 0.78 0.67 0.59 0.57 0.51 0.46 0.38 0.33 0.35 0.37 0.41 0.39 0.36 0.34 0.35 0.52 0.66 0.92
0.80 0.78 0.66 0.50 0.39 0.31 0.28 0.26 0.24 0.26 0.38 0.48 0.49 0.53 0.61 0.76 1.05 1.27 1.38 1.30 1.05 0.80 0.71 0.65 0.55 0.51 0.48 0.37 0.31 0.31 0.37 0.42 0.41 0.40 0.41 0.43 0.53 0.70
0.81 0.83 0.71 0.65 0.56 0.46 0.42 0.38 0.33 0.30 0.35 0.44 0.49 0.56 0.68 0.82 1.00 1.21 1.40 1.44 1.27 0.93 0.76 0.70 0.63 0.60 0.56 0.48 0.38 0.32 0.29 0.34 0.39 0.42 0.47 0.50 0.60 0.68
0.92 1.03 0.97 0.89 0.82 0.73 0.66 0.61 0.57 0.51 0.45 0.49 0.62 0.69 0.78 0.83 0.92 1.06 1.28 1.38 1.25 0.94 0.75 0.74 0.76 0.74 0.69 0.65 0.52 0.38 0.32 0.28 0.30 0.37 0.44 0.48 0.55 0.60
0.89 1.05 1.02 0.95 0.91 0.90 0.87 0.82 0.77 0.71 0.66 0.67 0.72 0.79 0.82 0.86 0.93 1.04 1.15 1.24 1.18 1.00 0.82 0.72 0.78 0.83 0.77 0.67 0.54 0.41 0.33 0.29 0.30 0.37 0.41 0.40 0.41 0.47
0.75 0.91 0.92 0.91 0.92 0.97 0.96 0.88 0.80 0.81 0.84 0.83 0.79 0.83 0.89 0.92 0.96 1.04 1.09 1.16 1.18 1.13 0.98 0.84 0.78 0.75 0.65 0.51 0.43 0.40 0.36 0.33 0.37 0.40 0.41 0.37 0.34 0.35
0.69 0.81 0.87 0.90 0.94 0.99 0.97 0.95 0.92 0.95 0.99 0.95 0.92 0.93 1.00 1.02 1.00 1.01 1.06 1.07 1.13 1.17 1.14 0.97 0.78 0.67 0.58 0.48 0.44 0.40 0.35 0.35 0.39 0.39 0.40 0.42 0.40 0.41
0.77 0.83 0.87 0.88 0.90 0.96 0.98 1.00 1.01 1.05 1.05 1.05 1.05 1.05 1.09 1.13 1.03 0.97 1.03 1.09 1.07 1.09 1.04 0.90 0.78 0.81 0.82 0.76 0.57 0.42 0.38 0.35 0.38 0.41 0.45 0.49 0.47 0.48
0.84 0.83 0.87 0.89 0.91 0.93 0.97 0.98 1.02 1.07 1.07 1.07 1.11 1.13 1.13 1.13 1.05 1.01 1.00 1.04 0.99 0.93 0.93 0.98 1.08 1.08 0.95 0.78 0.57 0.47 0.47 0.44 0.43 0.45 0.44 0.43 0.41 0.38
0.85 0.84 0.86 0.85 0.85 0.89 0.93 0.95 1.02 1.06 1.06 1.05 1.10 1.14 1.14 1.10 1.06 1.04 1.01 1.00 1.03 1.03 1.09 1.15 1.23 1.16 0.96 0.81 0.65 0.57 0.56 0.55 0.50 0.44 0.38 0.35 0.32 0.29

GEFSNE_prec_meanprecacc_108.txt.gz
Total_Precipitation_Accumulation
0.64 0.78 0.84 0.79 0.79 0.84 0.89 0.94 0.98 0.95 0.94 0.90 0.80 0.74 0.72 0.70 0.63 0.54 0.42 0.38 0.37 0.35 0.34 0.34 0.36 0.42 0.46 0.51 0.57 0.67 0.74 0.81 0.93 1.09 1.33 1.58 1.77 1.96
0.81 0.90 0.94 0.97 0.95 0.88 0.91 0.96 0.98 1.04 1.01 0.85 0.78 0.79 0.71 0.55 0.52 0.47 0.40 0.42 0.39 0.36 0.33 0.31 0.30 0.35 0.39 0.40 0.38 0.41 0.46 0.50 0.55 0.60 0.71 0.85 1.03 1.23
0.96 1.06 1.11 1.15 1.14 1.02 0.97 0.94 0.95 1.03 0.98 0.83 0.77 0.79 0.68 0.52 0.46 0.43 0.41 0.40 0.36 0.37 0.33 0.29 0.28 0.29 0.32 0.35 0.34 0.33 0.34 0.36 0.40 0.44 0.48 0.54 0.59 0.67
1.00 1.18 1.28 1.23 1.13 1.04 1.03 0.98 0.97 1.06 1.00 0.91 0.89 0.83 0.75 0.66 0.56 0.50 0.43 0.39 0.38 0.39 0.35 0.30 0.28 0.27 0.27 0.27 0.27 0.27 0.28 0.30 0.31 0.33 0.35 0.39 0.40 0.42
1.02 1.06 1.09 1.15 1.12 1.04 0.99 0.95 0.94 1.04 1.04 0.96 1.02 1.00 0.90 0.78 0.65 0.54 0.47 0.44 0.39 0.37 0.38 0.35 0.32 0.27 0.25 0.25 0.25 0.25 0.24 0.23 0.25 0.27 0.30 0.34 0.34 0.34
0.87 0.91 0.93 0.97 1.03 1.09 1.03 0.97 0.99 1.01 1.02 1.01 1.05 1.18 1.09 0.92 0.74 0.61 0.52 0.48 0.44 0.34 0.35 0.38 0.37 0.32 0.28 0.25 0.24 0.23 0.25 0.23 0.22 0.24 0.24 0.26 0.31 0.36
0.60 0.62 0.72 0.87 0.96 1.02 0.97 0.95 1.00 1.01 1.00 1.05 1.08 1.21 1.24 1.07 0.83 0.64 0.56 0.54 0.52 0.46 0.39 0.32 0.30 0.27 0.25 0.26 0.26 0.24 0.22 0.22 0.22 0.20 0.21 0.24 0.28 0.39
0.43 0.42 0.42 0.54 0.72 0.84 0.86 0.86 0.91 0.97 1.01 1.02 1.09 1.17 1.23 1.13 0.96 0.81 0.67 0.56 0.53 0.53 0.53 0.47 0.37 0.31 0.26 0.22 0.24 0.25 0.25 0.23 0.21 0.20 0.19 0.19 0.23 0.33
0.37 0.37 0.30 0.29 0.44 0.59 0.70 0.74 0.75 0.74 0.83 0.98 1.08 1.10 1.20 1.24 1.16 0.97 0.85 0.74 0.59 0.56 0.60 0.60 0.52 0.41 0.32 0.29 0.32 0.27 0.26 0.26 0.26 0.26 0.22 0.18 0.17 0.21
0.35 0.35 0.34 0.34 0.37 0.44 0.56 0.64 0.68 0.66 0.64 0.72 0.88 1.06 1.22 1.36 1.34 1.22 1.11 0.99 0.81 0.71 0.67 0.65 0.60 0.52 0.43 0.35 0.36 0.31 0.29 0.27 0.27 0.32 0.41 0.41 0.29 0.24
0.40 0.39 0.38 0.36 0.34 0.31 0.39 0.45 0.51 0.60 0.60 0.62 0.73 0.95 1.13 1.28 1.43 1.37 1.23 1.04 0.86 0.74 0.65 0.58 0.56 0.57 0.53 0.43 0.37 0.36 0.31 0.29 0.28 0.31 0.45 0.69 0.77 0.60
0.60 0.56 0.43 0.35 0.29 0.25 0.32 0.40 0.42 0.44 0.55 0.60 0.66 0.78 0.94 1.06 1.19 1.20 1.06 0.97 0.81 0.69 0.59 0.52 0.47 0.51 0.56 0.51 0.42 0.36 0.33 0.33 0.34 0.37 0.52 0.84 0.99 0.87
0.65 0.62 0.57 0.41 0.30 0.25 0.26 0.34 0.36 0.43 0.52 0.58 0.69 0.82 0.97 1.09 1.08 1.07 1.02 0.87 0.77 0.60 0.48 0.50 0.47 0.43 0.41 0.42 0.41 0.40 0.35 0.31 0.31 0.35 0.45 0.71 0.96 0.94
0.76 0.73 0.69 0.53 0.37 0.33 0.27 0.26 0.27 0.30 0.46 0.53 0.59 0.71 0.84 1.00 1.08 1.12 1.10 0.97 0.79 0.68 0.60 0.57 0.52 0.47 0.39 0.34 0.35 0.37 0.41 0.39 0.36 0.34 0.36 0.52 0.66 0.92
0.86 0.86 0.75 0.61 0.49 0.40 0.36 0.33 0.29 0.29 0.40 0.50 0.50 0.55 0.62 0.77 1.06 1.28 1.39 1.31 1.05 0.80 0.72 0.65 0.56 0.52 0.49 0.38 0.31 0.31 0.37 0.42 0.41 0.41 0.41 0.44 0.53 0.70
0.87 0.90 0.79 0.73 0.63 0.53 0.49 0.44 0.38 0.35 0.39 0.47 0.52 0.58 0.70 0.84 1.02 1.22 1.42 1.45 1.28 0.94 0.77 0.71 0.63 0.61 0.57 0.48 0.39 0.32 0.30 0.34 0.39 0.42 0.47 0.51 0.60 0.69
0.99 1.10 1.05 0.96 0.88 0.78 0.71 0.66 0.61 0.55 0.49 0.52 0.64 0.70 0.79 0.83 0.92 1.07 1.28 1.38 1.25 0.94 0.76 0.74 0.77 0.75 0.70 0.66 0.54 0.39 0.33 0.29 0.31 0.38 0.45 0.49 0.56 0.60
0.95 1.11 1.08 1.00 0.97 0.95 0.91 0.85 0.80 0.74 0.69 0.69 0.74 0.81 0.84 0.87 0.94 1.04 1.16 1.24 1.19 1.01 0.82 0.72 0.79 0.85 0.79 0.69 0.55 0.43 0.35 0.31 0.31 0.39 0.43 0.41 0.42 0.48
0.78 0.94 0.95 0.93 0.95 1.00 0.98 0.91 0.83 0.83 0.86 0.84 0.81 0.85 0.90 0.93 0.97 1.04 1.09 1.16 1.19 1.13 0.99 0.84 0.79 0.78 0.68 0.52 0.44 0.42 0.38 0.35 0.39 0.42 0.43 0.40 0.35 0.35
0.71 0.83 0.89 0.92 0.95 1.01 0.98 0.97 0.93 0.96 0.99 0.95 0.92 0.93 1.00 1.03 1.00 1.01 1.07 1.09 1.15 1.19 1.15 0.99 0.81 0.71 0.62 0.51 0.46 0.41 0.37 0.38 0.41 0.41 0.42 0.44 0.42 0.43
0.78 0.83 0.88 0.89 0.91 0.97 0.98 1.00 1.02 1.05 1.05 1.05 1.06 1.06 1.10 1.14 1.05 0.99 1.05 1.12 1.10 1.12 1.07 0.93 0.82 0.86 0.87 0.82 0.62 0.45 0.40 0.38 0.41 0.44 0.48 0.52 0.49 0.49
0.84 0.83 0.88 0.89 0.91 0.94 0.97 0.99 1.02 1.07 1.08 1.08 1.12 1.15 1.15 1.15 1.08 1.05 1.04 1.08 1.04 0.99 1.00 1.04 1.13 1.13 1.00 0.84 0.62 0.50 0.50 0.47 0.46 0.49 0.48 0.46 0.43 0.40
0.86 0.85 0.87 0.85 0.86 0.90 0.93 0.95 1.04 1.08 1.07 1.07 1.11 1.16 1.16 1.13 1.09 1.07 1.05 1.05 1.08 1.08 1.14 1.19 1.26 1.20 1.00 0.85 0.70 0.60 0.59 0.58 0.53 0.47 0.41 0.38 0.35 0.31

GEFSNE_prec_meanprecacc_114.txt.gz
Total_Precipitation_Accumulation
0.64 0.78 0.84 0.79 0.79 0.84 0.89 0.94 0.98 0.95 0.94 0.90 0.80 0.74 0.72 0.70 0.63 0.54 0.42 0.38 0.37 0.35 0.34 0.34 0.36 0.42 0.46 0.51 0.57 0.67 0.74 0.81 0.93 1.09 1.34 1.60 1.80 2.01
0.82 0.90 0.95 0.97 0.96 0.88 0.92 0.96 0.99 1.04 1.01 0.85 0.78 0.79 0.71 0.55 0.52 0.47 0.40 0.42 0.39 0.36 0.33 0.31 0.30 0.35 0.39 0.40 0.38 0.41 0.46 0.50 0.55 0.60 0.71 0.86 1.03 1.25
0.96 1.06 1.11 1.15 1.15 1.03 0.97 0.94 0.95 1.03 0.98 0.83 0.77 0.79 0.68 0.53 0.46 0.43 0.41 0.40 0.36 0.37 0.33 0.29 0.28 0.29 0.32 0.35 0.34 0.33 0.34 0.36 0.40 0.44 0.48 0.54 0.59 0.67
1.01 1.19 1.28 1.23 1.13 1.05 1.04 0.99 0.97 1.06 1.00 0.91 0.89 0.83 0.75 0.66 0.56 0.50 0.43 0.39 0.38 0.39 0.35 0.30 0.28 0.27 0.27 0.27 0.27 0.27 0.28 0.30 0.31 0.33 0.35 0.39 0.40 0.42
1.02 1.08 1.10 1.16 1.13 1.05 1.00 0.96 0.95 1.05 1.05 0.96 1.02 1.01 0.90 0.78 0.65 0.55 0.47 0.45 0.39 0.37 0.38 0.35 0.32 0.27 0.25 0.25 0.25 0.25 0.24 0.23 0.25 0.27 0.30 0.34 0.34 0.34
0.88 0.92 0.94 0.98 1.04 1.10 1.04 0.98 0.99 1.02 1.03 1.02 1.06 1.19 1.09 0.93 0.75 0.62 0.53 0.49 0.45 0.34 0.35 0.38 0.37 0.32 0.28 0.25 0.24 0.23 0.25 0.23 0.22 0.24 0.24 0.26 0.31 0.36
0.62 0.63 0.74 0.89 0.97 1.03 0.98 0.96 1.01 1.02 1.02 1.07 1.10 1.23 1.25 1.08 0.85 0.65 0.57 0.55 0.52 0.46 0.39 0.33 0.31 0.27 0.25 0.26 0.26 0.24 0.22 0.22 0.22 0.20 0.21 0.24 0.28 0.39
0.47 0.45 0.46 0.56 0.73 0.85 0.87 0.86 0.92 0.98 1.02 1.04 1.11 1.19 1.25 1.16 0.98 0.83 0.68 0.57 0.54 0.53 0.54 0.48 0.37 0.32 0.26 0.22 0.24 0.25 0.25 0.23 0.21 0.20 0.19 0.19 0.23 0.33
0.41 0.41 0.34 0.32 0.46 0.60 0.71 0.74 0.75 0.75 0.84 0.99 1.10 1.11 1.23 1.27 1.20 0.99 0.87 0.75 0.60 0.57 0.61 0.61 0.53 0.42 0.32 0.29 0.32 0.27 0.27 0.26 0.26 0.26 0.22 0.18 0.17 0.21
0.38 0.37 0.37 0.37 0.40 0.46 0.58 0.67 0.71 0.68 0.66 0.74 0.89 1.08 1.24 1.39 1.37 1.24 1.14 1.00 0.82 0.72 0.68 0.66 0.61 0.53 0.43 0.36 0.36 0.31 0.29 0.28 0.27 0.33 0.41 0.42 0.29 0.24
0.43 0.43 0.43 0.41 0.40 0.37 0.44 0.50 0.55 0.64 0.63 0.65 0.75 0.97 1.15 1.29 1.45 1.39 1.25 1.06 0.87 0.74 0.67 0.59 0.56 0.57 0.53 0.44 0.37 0.36 0.31 0.29 0.28 0.31 0.45 0.70 0.77 0.60
0.65 0.62 0.50 0.41 0.36 0.31 0.37 0.45 0.47 0.49 0.59 0.64 0.69 0.80 0.96 1.08 1.21 1.22 1.08 1.00 0.83 0.71 0.60 0.54 0.48 0.52 0.57 0.51 0.42 0.36 0.33 0.33 0.34 0.37 0.52 0.84 0.99 0.87
0.72 0.69 0.63 0.47 0.35 0.30 0.32 0.39 0.42 0.49 0.58 0.63 0.73 0.86 1.01 1.13 1.12 1.10 1.04 0.89 0.81 0.63 0.50 0.54 0.50 0.45 0.44 0.43 0.41 0.40 0.35 0.31 0.31 0.35 0.45 0.71 0.96 0.94
0.82 0.77 0.73 0.57 0.41 0.36 0.31 0.30 0.32 0.35 0.50 0.58 0.64 0.75 0.89 1.04 1.13 1.16 1.14 0.99 0.82 0.70 0.63 0.62 0.55 0.49 0.41 0.36 0.36 0.38 0.41 0.40 0.36 0.34 0.36 0.52 0.66 0.92
0.90 0.90 0.78 0.64 0.52 0.43 0.40 0.38 0.35 0.34 0.46 0.56 0.57 0.61 0.68 0.83 1.11 1.33 1.43 1.35 1.09 0.83 0.74 0.67 0.58 0.54 0.52 0.40 0.33 0.32 0.38 0.43 0.42 0.41 0.41 0.44 0.54 0.71
0.94 0.96 0.86 0.79 0.69 0.58 0.54 0.49 0.43 0.40 0.44 0.53 0.57 0.63 0.75 0.89 1.07 1.27 1.47 1.50 1.33 0.97 0.79 0.73 0.66 0.64 0.60 0.51 0.42 0.34 0.31 0.35 0.39 0.43 0.49 0.52 0.62 0.70
1.07 1.17 1.11 1.02 0.95 0.84 0.76 0.70 0.66 0.59 0.53 0.56 0.68 0.75 0.84 0.88 0.97 1.11 1.32 1.42 1.28 0.96 0.77 0.76 0.79 0.78 0.73 0.70 0.57 0.41 0.35 0.30 0.32 0.40 0.48 0.52 0.58 0.62
0.99 1.15 1.12 1.05 1.01 0.99 0.96 0.90 0.85 0.79 0.73 0.73 0.78 0.84 0.88 0.91 0.97 1.08 1.19 1.27 1.22 1.03 0.84 0.73 0.81 0.87 0.81 0.71 0.57 0.45 0.37 0.34 0.35 0.44 0.48 0.47 0.46 0.51
0.80 0.97 0.98 0.97 0.99 1.03 1.01 0.93 0.86 0.86 0.90 0.88 0.84 0.88 0.94 0.96 0.99 1.07 1.12 1.19 1.21 1.16 1.01 0.86 0.82 0.81 0.71 0.54 0.45 0.44 0.42 0.40 0.45 0.49 0.50 0.47 0.41 0.40
0.71 0.84 0.90 0.93 0.96 1.02 1.00 0.98 0.95 0.98 1.02 0.98 0.95 0.96 1.03 1.06 1.04 1.05 1.11 1.13 1.18 1.22 1.18 1.02 0.86 0.76 0.66 0.56 0.50 0.44 0.40 0.43 0.49 0.50 0.50 0.53 0.49 0.49
0.78 0.84 0.88 0.89 0.92 0.98 1.00 1.01 1.04 1.07 1.08 1.08 1.08 1.08 1.14 1.19 1.09 1.04 1.10 1.16 1.13 1.16 1.11 0.97 0.86 0.89 0.91 0.87 0.66 0.48 0.44 0.43 0.46 0.50 0.56 0.60 0.57 0.57
0.85 0.84 0.88 0.90 0.92 0.95 0.99 1.00 1.04 1.09 1.09 1.10 1.14 1.17 1.17 1.18 1.10 1.08 1.07 1.11 1.07 1.02 1.03 1.07 1.17 1.18 1.05 0.89 0.67 0.55 0.55 0.53 0.51 0.52 0.51 0.51 0.49 0.47
0.86 0.86 0.88 0.87 0.88 0.91 0.95 0.97 1.05 1.09 1.09 1.08 1.13 1.18 1.18 1.16 1.11 1.09 1.07 1.07 1.11 1.12 1.17 1.23 1.30 1.25 1.06 0.91 0.75 0.66 0.64 0.64 0.60 0.53 0.46 0.41 0.36 0.33

GEFSNE_prec_meanprecacc_120.txt.gz
Total_Precipitation_Accumulation
0.65 0.79 0.84 0.79 0.79 0.84 0.89 0.94 0.99 0.96 0.95 0.90 0.80 0.74 0.72 0.71 0.63 0.54 0.42 0.38 0.37 0.35 0.34 0.34 0.36 0.42 0.46 0.51 0.57 0.67 0.74 0.81 0.93 1.09 1.34 1.61 1.81 2.02
0.84 0.92 0.96 0.98 0.96 0.88 0.92 0.97 1.00 1.06 1.02 0.85 0.78 0.79 0.71 0.55 0.53 0.47 0.40 0.42 0.39 0.36 0.33 0.31 0.30 0.35 0.39 0.40 0.38 0.41 0.46 0.50 0.55 0.60 0.71 0.86 1.03 1.25
0.98 1.09 1.13 1.17 1.16 1.04 0.98 0.95 0.96 1.05 0.99 0.83 0.78 0.80 0.69 0.53 0.46 0.44 0.41 0.40 0.36 0.37 0.33 0.29 0.28 0.29 0.32 0.35 0.34 0.33 0.34 0.36 0.40 0.44 0.48 0.54 0.59 0.67
1.04 1.23 1.31 1.26 1.15 1.06 1.05 0.99 0.98 1.07 1.02 0.92 0.90 0.85 0.77 0.67 0.57 0.51 0.43 0.40 0.38 0.39 0.35 0.31 0.28 0.27 0.27 0.27 0.27 0.27 0.28 0.30 0.31 0.33 0.35 0.39 0.40 0.42
1.05 1.10 1.13 1.19 1.15 1.07 1.01 0.97 0.96 1.07 1.07 0.97 1.03 1.02 0.92 0.80 0.67 0.56 0.48 0.46 0.39 0.37 0.38 0.35 0.33 0.27 0.25 0.25 0.25 0.25 0.24 0.23 0.25 0.27 0.30 0.34 0.34 0.34
0.91 0.95 0.98 1.01 1.07 1.12 1.06 1.00 1.01 1.04 1.06 1.05 1.08 1.21 1.12 0.95 0.78 0.64 0.55 0.51 0.46 0.35 0.35 0.39 0.37 0.32 0.28 0.25 0.24 0.23 0.25 0.23 0.22 0.24 0.24 0.26 0.31 0.36
0.66 0.67 0.77 0.94 1.03 1.08 1.01 0.99 1.05 1.05 1.05 1.10 1.13 1.26 1.28 1.13 0.90 0.69 0.60 0.57 0.54 0.47 0.40 0.33 0.31 0.28 0.26 0.27 0.27 0.25 0.22 0.22 0.22 0.20 0.21 0.24 0.28 0.39
0.52 0.51 0.52 0.63 0.79 0.90 0.90 0.89 0.94 1.00 1.05 1.08 1.15 1.23 1.30 1.21 1.04 0.88 0.73 0.62 0.58 0.55 0.56 0.49 0.38 0.32 0.27 0.22 0.25 0.26 0.25 0.23 0.21 0.20 0.19 0.19 0.23 0.33
0.48 0.48 0.39 0.38 0.54 0.66 0.75 0.78 0.77 0.77 0.86 1.02 1.14 1.15 1.27 1.33 1.26 1.05 0.94 0.82 0.64 0.60 0.65 0.63 0.54 0.43 0.32 0.29 0.33 0.28 0.27 0.27 0.26 0.26 0.23 0.18 0.17 0.21
0.44 0.45 0.45 0.45 0.46 0.52 0.64 0.72 0.75 0.72 0.70 0.77 0.92 1.10 1.27 1.43 1.42 1.29 1.19 1.04 0.85 0.74 0.72 0.69 0.62 0.53 0.43 0.36 0.36 0.32 0.29 0.28 0.27 0.33 0.41 0.42 0.29 0.24
0.50 0.51 0.51 0.48 0.45 0.40 0.48 0.55 0.60 0.69 0.67 0.68 0.78 0.98 1.16 1.31 1.47 1.41 1.28 1.10 0.90 0.76 0.70 0.63 0.58 0.59 0.54 0.44 0.38 0.37 0.32 0.29 0.28 0.31 0.45 0.70 0.77 0.60
0.71 0.68 0.54 0.45 0.39 0.34 0.40 0.48 0.50 0.53 0.62 0.68 0.72 0.82 0.97 1.09 1.24 1.24 1.10 1.03 0.87 0.73 0.62 0.58 0.52 0.56 0.60 0.52 0.43 0.37 0.34 0.34 0.34 0.38 0.52 0.84 0.99 0.87
0.75 0.72 0.66 0.50 0.37 0.32 0.33 0.41 0.44 0.52 0.61 0.67 0.78 0.90 1.06 1.17 1.17 1.14 1.08 0.94 0.86 0.66 0.52 0.58 0.54 0.50 0.49 0.46 0.43 0.41 0.37 0.33 0.33 0.36 0.46 0.72 0.97 0.95
0.85 0.80 0.75 0.59 0.42 0.37 0.32 0.31 0.33 0.37 0.52 0.60 0.66 0.79 0.94 1.10 1.19 1.24 1.22 1.07 0.89 0.76 0.68 0.67 0.60 0.54 0.47 0.40 0.39 0.40 0.43 0.41 0.39 0.37 0.38 0.54 0.68 0.93
0.93 0.94 0.82 0.67 0.55 0.46 0.44 0.42 0.38 0.37 0.50 0.60 0.61 0.66 0.74 0.89 1.17 1.39 1.49 1.41 1.14 0.88 0.78 0.72 0.64 0.59 0.57 0.44 0.36 0.35 0.39 0.44 0.42 0.42 0.43 0.46 0.56 0.73
1.00 1.02 0.90 0.82 0.72 0.61 0.57 0.52 0.46 0.44 0.49 0.58 0.62 0.68 0.79 0.93 1.11 1.31 1.50 1.53 1.37 1.00 0.83 0.77 0.70 0.69 0.65 0.55 0.45 0.36 0.33 0.36 0.40 0.43 0.50 0.54 0.63 0.72
1.10 1.20 1.15 1.06 0.98 0.88 0.80 0.74 0.69 0.63 0.57 0.60 0.73 0.79 0.87 0.91 1.00 1.14 1.35 1.46 1.32 1.00 0.80 0.79 0.82 0.83 0.77 0.73 0.60 0.43 0.37 0.32 0.33 0.41 0.51 0.54 0.59 0.63
0.99 1.16 1.15 1.07 1.04 1.02 0.99 0.93 0.88 0.82 0.77 0.76 0.81 0.87 0.90 0.94 1.00 1.10 1.22 1.30 1.26 1.06 0.88 0.77 0.85 0.91 0.85 0.75 0.60 0.48 0.40 0.36 0.37 0.47 0.53 0.50 0.48 0.52
0.81 0.99 1.01 1.00 1.02 1.06 1.04 0.96 0.88 0.89 0.93 0.91 0.87 0.91 0.97 0.99 1.03 1.10 1.15 1.23 1.26 1.20 1.05 0.91 0.87 0.87 0.75 0.57 0.47 0.46 0.46 0.44 0.49 0.52 0.54 0.51 0.44 0.42
0.73 0.86 0.92 0.95 0.99 1.05 1.03 1.02 0.98 1.01 1.04 1.00 0.97 0.98 1.06 1.08 1.06 1.07 1.14 1.17 1.22 1.25 1.21 1.05 0.90 0.81 0.71 0.59 0.52 0.45 0.42 0.46 0.52 0.53 0.53 0.57 0.53 0.52
0.80 0.86 0.90 0.91 0.94 1.02 1.04 1.05 1.06 1.10 1.09 1.10 1.10 1.10 1.16 1.21 1.12 1.07 1.13 1.19 1.16 1.19 1.14 1.00 0.90 0.93 0.95 0.91 0.69 0.49 0.47 0.46 0.48 0.53 0.58 0.63 0.60 0.61
0.86 0.86 0.90 0.92 0.95 0.98 1.02 1.03 1.06 1.11 1.11 1.11 1.16 1.19 1.19 1.20 1.13 1.10 1.09 1.14 1.09 1.05 1.06 1.10 1.19 1.21 1.09 0.94 0.70 0.58 0.58 0.55 0.54 0.54 0.52 0.52 0.52 0.50
0.88 0.88 0.90 0.88 0.89 0.93 0.96 0.98 1.07 1.11 1.11 1.11 1.15 1.20 1.21 1.18 1.13 1.12 1.09 1.10 1.13 1.14 1.20 1.26 1.34 1.28 1.10 0.95 0.79 0.70 0.67 0.67 0.63 0.58 0.51 0.46 0.38 0.34

GEFSNE_prec_meanprecacc_126.txt.gz
Total_Precipitation_Accumulation
0.65 0.80 0.84 0.79 0.79 0.84 0.90 0.95 1.00 0.97 0.96 0.90 0.80 0.74 0.73 0.71 0.63 0.54 0.42 0.38 0.37 0.35 0.34 0.34 0.36 0.42 0.46 0.51 0.57 0.67 0.74 0.81 0.93 1.09 1.35 1.62 1.82 2.04
0.84 0.93 0.96 0.98 0.96 0.88 0.92 0.97 1.00 1.06 1.02 0.85 0.78 0.79 0.71 0.56 0.53 0.47 0.40 0.42 0.39 0.36 0.33 0.31 0.30 0.35 0.39 0.40 0.38 0.41 0.46 0.50 0.55 0.61 0.71 0.86 1.03 1.25
0.99 1.09 1.14 1.18 1.17 1.04 0.98 0.96 0.96 1.05 0.99 0.83 0.78 0.80 0.69 0.53 0.46 0.44 0.41 0.40 0.36 0.37 0.33 0.30 0.29 0.29 0.33 0.35 0.34 0.34 0.35 0.36 0.40 0.44 0.48 0.54 0.59 0.67
1.05 1.23 1.32 1.27 1.16 1.07 1.05 1.00 0.98 1.07 1.02 0.93 0.90 0.85 0.77 0.67 0.58 0.51 0.43 0.40 0.38 0.40 0.36 0.31 0.29 0.28 0.27 0.27 0.28 0.27 0.29 0.30 0.31 0.33 0.35 0.39 0.40 0.42
1.06 1.12 1.14 1.20 1.16 1.08 1.02 0.98 0.97 1.07 1.07 0.98 1.03 1.03 0.92 0.80 0.69 0.58 0.49 0.47 0.40 0.38 0.39 0.36 0.33 0.28 0.26 0.25 0.25 0.25 0.24 0.23 0.25 0.27 0.30 0.34 0.34 0.34
0.93 0.97 0.99 1.03 1.08 1.14 1.07 1.02 1.04 1.06 1.07 1.06 1.08 1.21 1.12 0.96 0.79 0.66 0.57 0.52 0.47 0.35 0.36 0.40 0.37 0.32 0.28 0.26 0.25 0.24 0.25 0.23 0.23 0.24 0.24 0.26 0.31 0.37
0.69 0.70 0.80 0.98 1.07 1.13 1.05 1.03 1.09 1.08 1.07 1.12 1.14 1.26 1.29 1.13 0.90 0.70 0.61 0.58 0.54 0.48 0.41 0.34 0.32 0.28 0.26 0.27 0.27 0.25 0.22 0.23 0.22 0.21 0.21 0.24 0.29 0.39
0.60 0.58 0.58 0.71 0.86 0.96 0.95 0.93 0.99 1.04 1.08 1.10 1.17 1.24 1.30 1.22 1.05 0.89 0.74 0.63 0.58 0.56 0.58 0.50 0.39 0.33 0.27 0.23 0.25 0.27 0.26 0.23 0.22 0.20 0.19 0.19 0.23 0.33
0.55 0.53 0.45 0.45 0.61 0.71 0.80 0.83 0.81 0.80 0.88 1.04 1.15 1.17 1.29 1.34 1.27 1.07 0.96 0.83 0.66 0.61 0.66 0.64 0.55 0.44 0.33 0.30 0.34 0.28 0.27 0.27 0.26 0.26 0.23 0.18 0.18 0.21
0.50 0.51 0.53 0.53 0.53 0.58 0.68 0.76 0.78 0.74 0.73 0.80 0.94 1.12 1.29 1.45 1.44 1.31 1.21 1.06 0.86 0.75 0.73 0.69 0.62 0.54 0.44 0.37 0.38 0.33 0.30 0.29 0.28 0.33 0.42 0.42 0.29 0.24
0.59 0.60 0.59 0.55 0.52 0.47 0.53 0.58 0.63 0.72 0.70 0.71 0.80 1.00 1.19 1.34 1.49 1.43 1.30 1.12 0.92 0.78 0.72 0.65 0.59 0.59 0.55 0.45 0.40 0.39 0.34 0.30 0.30 0.32 0.46 0.70 0.77 0.60
0.78 0.73 0.59 0.49 0.42 0.37 0.42 0.50 0.52 0.55 0.65 0.70 0.73 0.84 0.99 1.12 1.27 1.27 1.14 1.08 0.91 0.76 0.65 0.62 0.55 0.59 0.62 0.53 0.44 0.39 0.36 0.35 0.36 0.39 0.54 0.86 1.01 0.89
0.80 0.75 0.69 0.53 0.40 0.35 0.36 0.43 0.45 0.53 0.62 0.68 0.79 0.92 1.07 1.19 1.19 1.16 1.11 0.99 0.89 0.69 0.54 0.61 0.57 0.52 0.51 0.48 0.44 0.42 0.38 0.35 0.34 0.38 0.48 0.74 0.99 0.97
0.89 0.84 0.79 0.63 0.45 0.41 0.36 0.35 0.36 0.39 0.54 0.61 0.68 0.81 0.96 1.12 1.21 1.27 1.25 1.11 0.93 0.80 0.71 0.70 0.63 0.57 0.50 0.43 0.41 0.41 0.44 0.42 0.40 0.38 0.40 0.56 0.70 0.95
1.00 1.02 0.89 0.74 0.61 0.52 0.50 0.47 0.42 0.40 0.52 0.63 0.64 0.68 0.77 0.92 1.20 1.43 1.53 1.45 1.18 0.91 0.81 0.75 0.67 0.63 0.61 0.48 0.39 0.38 0.42 0.47 0.45 0.45 0.45 0.48 0.59 0.75
1.07 1.11 0.99 0.91 0.77 0.64 0.59 0.54 0.47 0.45 0.51 0.60 0.64 0.71 0.82 0.96 1.14 1.34 1.54 1.57 1.41 1.04 0.86 0.80 0.74 0.73 0.68 0.58 0.48 0.39 0.35 0.39 0.43 0.47 0.53 0.56 0.66 0.75
1.12 1.22 1.16 1.07 1.00 0.89 0.81 0.75 0.70 0.64 0.59 0.61 0.74 0.81 0.89 0.93 1.02 1.16 1.37 1.48 1.35 1.02 0.83 0.81 0.85 0.86 0.82 0.78 0.64 0.47 0.40 0.35 0.36 0.45 0.55 0.57 0.61 0.66
1.00 1.17 1.15 1.08 1.05 1.03 0.99 0.94 0.89 0.83 0.78 0.78 0.83 0.90 0.93 0.96 1.02 1.12 1.23 1.33 1.28 1.08 0.89 0.79 0.87 0.94 0.89 0.79 0.65 0.52 0.44 0.40 0.41 0.52 0.58 0.55 0.51 0.55
0.81 0.99 1.01 1.01 1.03 1.07 1.05 0.97 0.90 0.91 0.94 0.92 0.88 0.93 0.98 1.00 1.04 1.11 1.16 1.24 1.27 1.21 1.06 0.93 0.89 0.90 0.79 0.61 0.51 0.50 0.50 0.48 0.54 0.57 0.59 0.57 0.49 0.46
0.73 0.86 0.92 0.95 0.99 1.05 1.04 1.03 1.00 1.02 1.05 1.01 0.98 0.99 1.06 1.09 1.07 1.08 1.15 1.18 1.23 1.26 1.22 1.06 0.92 0.84 0.74 0.62 0.55 0.48 0.46 0.50 0.56 0.56 0.57 0.60 0.56 0.55
0.80 0.86 0.91 0.92 0.95 1.02 1.05 1.06 1.08 1.11 1.10 1.10 1.10 1.11 1.16 1.22 1.13 1.07 1.13 1.20 1.17 1.20 1.15 1.02 0.91 0.95 0.97 0.93 0.72 0.51 0.49 0.48 0.51 0.55 0.60 0.65 0.62 0.62
0.87 0.87 0.92 0.94 0.96 0.98 1.02 1.03 1.06 1.11 1.11 1.12 1.17 1.20 1.20 1.21 1.14 1.10 1.10 1.15 1.10 1.06 1.07 1.12 1.21 1.23 1.12 0.97 0.74 0.61 0.61 0.58 0.55 0.55 0.54 0.54 0.54 0.51
0.89 0.89 0.90 0.88 0.89 0.93 0.96 0.99 1.07 1.11 1.11 1.11 1.16 1.21 1.21 1.19 1.14 1.13 1.11 1.11 1.15 1.16 1.22 1.28 1.36 1.30 1.12 0.98 0.83 0.74 0.71 0.70 0.66 0.59 0.53 0.48 0.42 0.37

GEFSNE_prec_meanprecacc_132.txt.gz
Total_Precipitation_Accumulation
0.66 0.80 0.85 0.80 0.79 0.84 0.90 0.95 1.00 0.97 0.96 0.90 0.80 0.74 0.73 0.71 0.63 0.54 0.42 0.38 0.38 0.35 0.35 0.34 0.37 0.42 0.47 0.51 0.58 0.67 0.74 0.82 0.94 1.10 1.35 1.63 1.84 2.06
0.84 0.93 0.97 0.99 0.97 0.89 0.93 0.97 1.01 1.06 1.02 0.85 0.78 0.79 0.71 0.56 0.53 0.47 0.40 0.42 0.39 0.36 0.33 0.31 0.30 0.35 0.39 0.41 0.38 0.41 0.46 0.50 0.55 0.61 0.71 0.86 1.04 1.26
0.99 1.10 1.14 1.18 1.17 1.05 0.99 0.96 0.97 1.05 0.99 0.83 0.78 0.80 0.69 0.53 0.47 0.44 0.41 0.40 0.36 0.37 0.33 0.30 0.29 0.30 0.34 0.35 0.35 0.34 0.35 0.36 0.40 0.44 0.48 0.55 0.59 0.67
1.06 1.24 1.32 1.27 1.16 1.08 1.06 1.00 0.99 1.08 1.02 0.93 0.90 0.85 0.77 0.67 0.58 0.52 0.44 0.40 0.38 0.41 0.37 0.33 0.30 0.29 0.28 0.28 0.28 0.28 0.29 0.30 0.31 0.33 0.35 0.39 0.40 0.42
1.08 1.13 1.15 1.21 1.17 1.09 1.03 0.98 0.97 1.07 1.07 0.98 1.04 1.03 0.92 0.80 0.69 0.58 0.50 0.48 0.41 0.39 0.40 0.37 0.34 0.29 0.27 0.26 0.26 0.26 0.25 0.24 0.26 0.28 0.30 0.34 0.34 0.34
0.98 1.01 1.03 1.05 1.10 1.15 1.09 1.03 1.05 1.07 1.08 1.07 1.09 1.22 1.12 0.96 0.80 0.66 0.57 0.52 0.47 0.35 0.36 0.40 0.38 0.33 0.29 0.27 0.25 0.25 0.26 0.25 0.24 0.25 0.24 0.26 0.32 0.37
0.79 0.76 0.85 1.01 1.10 1.16 1.07 1.04 1.11 1.10 1.09 1.13 1.15 1.27 1.29 1.14 0.91 0.70 0.61 0.59 0.55 0.49 0.42 0.35 0.33 0.29 0.27 0.28 0.28 0.26 0.24 0.24 0.23 0.22 0.22 0.25 0.29 0.39
0.71 0.67 0.67 0.77 0.91 0.99 0.98 0.96 1.01 1.06 1.09 1.12 1.18 1.25 1.31 1.23 1.06 0.90 0.75 0.64 0.59 0.57 0.59 0.52 0.40 0.34 0.28 0.24 0.27 0.28 0.27 0.24 0.23 0.21 0.20 0.20 0.24 0.34
0.63 0.60 0.51 0.50 0.66 0.75 0.84 0.88 0.86 0.85 0.92 1.06 1.17 1.18 1.30 1.35 1.28 1.07 0.96 0.84 0.67 0.63 0.68 0.65 0.57 0.46 0.36 0.33 0.37 0.32 0.30 0.29 0.28 0.27 0.23 0.19 0.18 0.21
0.54 0.55 0.57 0.56 0.57 0.62 0.72 0.79 0.81 0.79 0.77 0.83 0.96 1.14 1.32 1.48 1.46 1.33 1.22 1.07 0.87 0.76 0.74 0.71 0.64 0.56 0.46 0.40 0.42 0.38 0.35 0.33 0.31 0.36 0.43 0.42 0.29 0.24
0.67 0.67 0.65 0.60 0.58 0.53 0.58 0.62 0.66 0.75 0.74 0.74 0.82 1.03 1.22 1.36 1.51 1.45 1.31 1.12 0.93 0.78 0.73 0.68 0.62 0.62 0.57 0.48 0.42 0.43 0.37 0.35 0.35 0.37 0.49 0.72 0.78 0.60
0.84 0.80 0.66 0.55 0.48 0.43 0.47 0.53 0.54 0.56 0.67 0.72 0.75 0.85 1.01 1.14 1.29 1.29 1.15 1.09 0.92 0.77 0.65 0.63 0.56 0.61 0.65 0.56 0.47 0.41 0.38 0.37 0.38 0.42 0.58 0.88 1.03 0.90
0.84 0.79 0.72 0.57 0.43 0.39 0.39 0.46 0.49 0.56 0.65 0.71 0.81 0.93 1.08 1.20 1.20 1.17 1.13 1.01 0.91 0.71 0.56 0.62 0.59 0.54 0.53 0.50 0.45 0.43 0.39 0.35 0.35 0.39 0.50 0.76 1.02 0.99
0.96 0.90 0.85 0.68 0.50 0.45 0.40 0.40 0.41 0.43 0.57 0.65 0.71 0.83 0.98 1.13 1.23 1.28 1.27 1.13 0.95 0.82 0.73 0.73 0.66 0.60 0.52 0.45 0.43 0.42 0.46 0.43 0.41 0.39 0.41 0.58 0.72 0.98
1.08 1.11 0.97 0.81 0.66 0.56 0.54 0.52 0.46 0.44 0.56 0.66 0.67 0.71 0.79 0.94 1.22 1.45 1.55 1.48 1.20 0.94 0.83 0.78 0.70 0.66 0.64 0.51 0.41 0.39 0.44 0.48 0.47 0.46 0.46 0.50 0.61 0.78
1.12 1.16 1.05 0.95 0.81 0.68 0.63 0.57 0.50 0.47 0.52 0.61 0.65 0.72 0.83 0.97 1.15 1.35 1.55 1.59 1.42 1.06 0.88 0.82 0.76 0.76 0.71 0.60 0.50 0.41 0.37 0.41 0.44 0.47 0.54 0.57 0.67 0.77
1.17 1.26 1.21 1.12 1.04 0.92 0.83 0.77 0.71 0.65 0.60 0.62 0.75 0.82 0.90 0.94 1.03 1.17 1.39 1.50 1.37 1.04 0.84 0.82 0.87 0.88 0.84 0.80 0.67 0.49 0.42 0.37 0.38 0.47 0.57 0.59 0.63 0.68
1.02 1.19 1.18 1.10 1.06 1.04 1.00 0.94 0.90 0.84 0.79 0.79 0.84 0.91 0.94 0.97 1.03 1.13 1.25 1.34 1.29 1.10 0.91 0.80 0.89 0.97 0.92 0.82 0.68 0.55 0.46 0.43 0.44 0.54 0.61 0.59 0.55 0.59
0.82 1.00 1.02 1.01 1.03 1.07 1.05 0.97 0.90 0.91 0.95 0.93 0.89 0.93 0.98 1.01 1.04 1.12 1.17 1.25 1.28 1.22 1.07 0.94 0.91 0.91 0.81 0.62 0.53 0.53 0.53 0.51 0.56 0.60 0.62 0.60 0.52 0.51
0.73 0.87 0.92 0.95 0.99 1.05 1.04 1.03 1.00 1.02 1.05 1.01 0.98 0.99 1.06 1.09 1.07 1.08 1.15 1.18 1.23 1.26 1.22 1.07 0.92 0.85 0.75 0.64 0.57 0.50 0.48 0.52 0.58 0.59 0.60 0.63 0.60 0.59
0.81 0.87 0.91 0.92 0.95 1.02 1.05 1.06 1.08 1.11 1.10 1.10 1.10 1.11 1.16 1.22 1.13 1.07 1.13 1.20 1.17 1.20 1.15 1.02 0.91 0.95 0.97 0.94 0.73 0.52 0.50 0.50 0.53 0.58 0.63 0.67 0.64 0.64
0.88 0.87 0.92 0.94 0.96 0.98 1.02 1.03 1.06 1.11 1.11 1.12 1.17 1.20 1.20 1.21 1.14 1.10 1.10 1.15 1.10 1.06 1.07 1.12 1.22 1.24 1.13 0.98 0.75 0.63 0.62 0.60 0.59 0.59 0.57 0.57 0.57 0.54
0.89 0.89 0.90 0.88 0.89 0.93 0.96 0.99 1.07 1.11 1.11 1.11 1.16 1.21 1.21 1.19 1.14 1.13 1.11 1.11 1.15 1.16 1.22 1.29 1.36 1.31 1.13 1.00 0.85 0.76 0.74 0.73 0.69 0.63 0.57 0.53 0.47 0.42